sat.trackr.live / text

‹ back to catalog

HULIANWANG DIGUI-11

NORAD 62971 · 2025-030A

PAYLOAD ACTIVE UNKNOWN

§ Identity

Operator
Country
PRC
Launch date
2025-02-11
Launch site
WSC
Launch vehicle
Mass (kg)
RCS (m²)

External: N2YO · Heavens-Above · Gunter

§ Orbital elements

Epoch: 2026-05-25T03:43:30.779904Z

Period
108.33 min
Inclination
50.0018°
Eccentricity
0.0001327
Mean motion
13.29321237 rev/d
Perigee alt
1,148.3 km
Apogee alt
1,150.3 km
Semi-major
7,527.5 km
B*
9.0082e-5
RAAN
318.4319°
Arg perigee
97.5647°
Mean anomaly
262.5376°
Rev number
6,279

§ Raw data

HULIANWANG DIGUI-111 62971U 25030A   26145.15521736 -.00000082  00000+0  90082-4 0  99962 62971  50.0018 318.4319 0001327  97.5647 262.5376 13.29321237 62799

JSON: /api/v1/satellites/62971 · /tle

For live sub-satellite position, see the globe view (requires WebGL).

§ Visibility from observer

Set your observer location to see the next 7 days of passes ≥ 10°. The values pass through the URL so the page stays shareable.

No JS? Fill the form by hand. The geolocation button needs JavaScript.